Weather History for Houlton, ME

Change the Weather History Date:

Saturday, December 1, 2012

  Actual Average Record
Temperature  
Mean Temperature 11 °F 26 °F  
Max Temperature 23 °F 34 °F 52 °F (1975)
Min Temperature -1 °F 18 °F -9 °F (1974)
Degree Days  
Heating Degree Days 54 39  
Month to date heating degree days 54 39  
Since 1 July heating degree days 1923 2147  
Cooling Degree Days 0 0  
Month to date cooling degree days 0 0  
Year to date cooling degree days 277 191  
Moisture  
Dew Point 3 °F    
Average Humidity 66    
Maximum Humidity 87    
Minimum Humidity 45    
Precipitation  
Precipitation T in 0.12 in 1.72 in (2005)
Month to date precipitation T 0.12  
Year to date precipitation 42.71 36.81  
Sea Level Pressure  
Sea Level Pressure 30.65 in    
Wind  
Wind Speed 1 mph (SSE)    
Max Wind Speed 7 mph    
Max Gust Speed 10 mph    
Visibility 10 miles    
Events      
T = Trace of Precipitation, MM = Missing Value Source: NWS Daily Summary

Daily Weather History Graph

Daily Weather History Graph

Search for Another Location

Airport:

Trip Planner

Search our weather history database for the weather conditions in past years. The results will help you decide how hot, cold, wet, or windy it might be!

Date:

Astronomy

Dec. 01, 2012 Rise Set
Actual Time 6:53 AM EST 3:47 PM EST
Civil Twilight 6:19 AM EST 4:21 PM EST
Nautical Twilight 5:42 AM EST 4:58 PM EST
Astronomical Twilight 5:05 AM EST 5:34 PM EST
Moon 6:36 PM EST (12/1) 9:02 AM EST (12/1)
Length of Visible Light 10h 01m
Length of Day
8h 53m
Waning Gibbous, 92% of the Moon is Illuminated
Dec 1
Waning Gibbous
Dec 6
Last Quarter
Dec 13
New
Dec 20
First Quarter
Dec 28
Full

Hourly Weather History & Observations

Time (EST) Temp. Windchill Dew Point Humidity Pressure Visibility Wind Dir Wind Speed Gust Speed Precip Events Conditions
12:53 AM 5.0 °F - -0.9 °F 76% 30.61 in 10.0 mi Calm Calm - N/A   Clear
1:53 AM 3.9 °F - -2.0 °F 76% 30.63 in 10.0 mi Calm Calm - N/A   Clear
2:53 AM 1.0 °F - -2.9 °F 83% 30.64 in 10.0 mi Calm Calm - N/A   Clear
3:53 AM 1.9 °F - -2.9 °F 80% 30.65 in 10.0 mi Calm Calm - N/A   Clear
4:53 AM -0.0 °F - -5.1 °F 79% 30.66 in 10.0 mi Calm Calm - N/A   Clear
5:53 AM -0.4 °F - -5.8 °F 78% 30.63 in 10.0 mi Calm Calm - N/A   Clear
6:53 AM -0.0 °F - -5.1 °F 79% 30.69 in 10.0 mi Calm Calm - N/A   Clear
7:53 AM 5.0 °F - -0.9 °F 76% 30.71 in 10.0 mi Calm Calm - N/A   Clear
8:53 AM 10.9 °F - 5.0 °F 77% 30.71 in 10.0 mi Calm Calm - N/A   Clear
9:53 AM 14.0 °F - 6.1 °F 71% 30.72 in 10.0 mi Calm Calm - N/A   Clear
10:53 AM 18.0 °F 12.7 °F 7.0 °F 62% 30.69 in 10.0 mi North 3.5 mph - N/A   Clear
11:53 AM 19.0 °F - 7.0 °F 59% 30.66 in 10.0 mi Calm Calm - N/A   Clear
12:53 PM 21.0 °F - 6.1 °F 53% 30.65 in 10.0 mi Calm Calm - N/A   Clear
1:53 PM 23.0 °F 18.4 °F 6.1 °F 48% 30.65 in 10.0 mi WSW 3.5 mph - N/A   Clear
2:53 PM 23.0 °F - 5.0 °F 46% 30.65 in 10.0 mi Calm Calm - N/A   Clear
3:53 PM 17.6 °F - 6.8 °F 63% 30.61 in 10.0 mi Calm Calm - N/A   Scattered Clouds
4:53 PM 17.1 °F - 9.0 °F 71% 30.66 in 10.0 mi Calm Calm - N/A   Overcast
5:53 PM 19.9 °F - 9.0 °F 62% 30.65 in 10.0 mi Calm Calm - N/A   Overcast
6:53 PM 21.0 °F 16.2 °F 6.1 °F 53% 30.64 in 10.0 mi SE 3.5 mph - N/A   Overcast
7:04 PM 21.2 °F 16.4 °F 6.8 °F 54% 30.60 in 10.0 mi SSE 3.5 mph - N/A   Overcast
7:53 PM 21.9 °F - 6.1 °F 51% 30.63 in 10.0 mi Calm Calm - N/A   Overcast
8:53 PM 21.9 °F 17.2 °F 6.1 °F 51% 30.63 in 10.0 mi SSE 3.5 mph - N/A   Overcast
9:53 PM 21.9 °F 15.7 °F 6.1 °F 51% 30.61 in 10.0 mi Variable 4.6 mph - N/A   Overcast
10:53 PM 21.9 °F 17.2 °F 6.1 °F 51% 30.59 in 10.0 mi SSE 3.5 mph - N/A   Overcast
11:53 PM 21.9 °F - 6.1 °F 51% 30.57 in 10.0 mi Calm Calm - N/A   Overcast